Time,TemperatureF,DewpointF,PressureIn,WindDirection,WindDirectionDegrees,WindSpeedMPH,WindSpeedGustMPH,Humidity,HourlyPrecipIn,Conditions,Clouds,dailyrainin,SoftwareType,DateUTC
2013-01-04 00:16:00,68.0,66.8,29.98,South,180,0.0,-999.0,96,-99.99,,,0.00,Acu-Link.com,2013-01-04 05:16:00,
2013-01-04 00:31:00,67.5,66.9,29.97,South,180,0.0,-999.0,98,-99.99,,,0.00,Acu-Link.com,2013-01-04 05:31:00,
2013-01-04 00:46:00,66.9,66.6,29.97,South,180,0.0,-999.0,99,-99.99,,,0.00,Acu-Link.com,2013-01-04 05:46:00,
2013-01-04 01:02:00,66.6,66.3,29.97,South,180,0.0,-999.0,99,-99.99,,,0.00,Acu-Link.com,2013-01-04 06:02:00,
2013-01-04 01:17:00,66.4,66.1,29.97,South,180,0.0,-999.0,99,-99.99,,,0.00,Acu-Link.com,2013-01-04 06:17:00,
2013-01-04 01:32:00,66.0,65.7,29.97,South,180,0.0,-999.0,99,-99.99,,,0.00,Acu-Link.com,2013-01-04 06:32:00,
2013-01-04 01:47:00,65.7,65.4,29.96,South,180,0.0,-999.0,99,-99.99,,,0.00,Acu-Link.com,2013-01-04 06:47:00,
2013-01-04 02:03:00,65.5,65.2,29.97,South,180,0.0,-999.0,99,-99.99,,,0.00,Acu-Link.com,2013-01-04 07:03:00,
2013-01-04 02:18:00,65.3,65.0,29.98,South,180,0.0,-999.0,99,-99.99,,,0.00,Acu-Link.com,2013-01-04 07:18:00,
2013-01-04 02:33:00,65.1,64.8,29.97,South,180,0.0,-999.0,99,-99.99,,,0.00,Acu-Link.com,2013-01-04 07:33:00,
2013-01-04 02:48:00,64.9,64.6,29.97,South,180,0.0,-999.0,99,-99.99,,,0.00,Acu-Link.com,2013-01-04 07:48:00,
2013-01-04 03:03:00,64.8,64.5,29.97,South,180,0.0,-999.0,99,-99.99,,,0.00,Acu-Link.com,2013-01-04 08:03:00,
2013-01-04 03:18:00,64.8,64.5,29.97,South,180,0.0,-999.0,99,-99.99,,,0.00,Acu-Link.com,2013-01-04 08:18:00,
2013-01-04 03:33:00,64.6,64.3,29.97,South,180,0.0,-999.0,99,-99.99,,,0.00,Acu-Link.com,2013-01-04 08:33:00,
2013-01-04 03:48:00,64.6,64.3,29.97,South,180,0.0,-999.0,99,-99.99,,,0.00,Acu-Link.com,2013-01-04 08:48:00,
2013-01-04 04:07:00,65.1,64.8,29.97,South,180,1.7,-999.0,99,-99.99,,,0.00,Acu-Link.com,2013-01-04 09:07:00,
2013-01-04 04:22:00,65.3,65.0,29.97,South,180,1.1,-999.0,99,-99.99,,,0.00,Acu-Link.com,2013-01-04 09:22:00,
2013-01-04 04:37:00,65.3,65.0,29.97,South,180,0.0,-999.0,99,-99.99,,,0.00,Acu-Link.com,2013-01-04 09:37:00,
2013-01-04 04:52:00,64.9,64.6,29.97,South,180,0.0,-999.0,99,-99.99,,,0.00,Acu-Link.com,2013-01-04 09:52:00,
2013-01-04 05:08:00,64.8,64.5,29.98,South,180,0.0,-999.0,99,-99.99,,,0.00,Acu-Link.com,2013-01-04 10:08:00,
2013-01-04 05:23:00,65.1,64.8,29.98,South,180,0.0,-999.0,99,-99.99,,,0.00,Acu-Link.com,2013-01-04 10:23:00,
2013-01-04 05:38:00,64.8,64.5,29.98,South,180,0.0,-999.0,99,-99.99,,,0.00,Acu-Link.com,2013-01-04 10:38:00,
2013-01-04 05:53:00,64.8,64.5,29.99,South,180,0.0,-999.0,99,-99.99,,,0.00,Acu-Link.com,2013-01-04 10:53:00,
2013-01-04 06:08:00,64.6,64.3,29.99,South,180,0.0,-999.0,99,-99.99,,,0.00,Acu-Link.com,2013-01-04 11:08:00,
2013-01-04 06:23:00,64.8,64.5,29.99,South,180,0.0,-999.0,99,-99.99,,,0.00,Acu-Link.com,2013-01-04 11:23:00,
2013-01-04 06:38:00,65.5,65.2,30.00,South,180,0.0,-999.0,99,-99.99,,,0.00,Acu-Link.com,2013-01-04 11:38:00,
2013-01-04 06:53:00,65.7,65.4,30.00,South,180,0.0,-999.0,99,-99.99,,,0.00,Acu-Link.com,2013-01-04 11:53:00,
2013-01-04 07:08:00,65.7,65.4,30.01,South,180,0.0,-999.0,99,-99.99,,,0.00,Acu-Link.com,2013-01-04 12:08:00,
2013-01-04 07:24:00,65.7,65.4,30.02,NE,45,2.7,-999.0,99,-99.99,,,0.00,Acu-Link.com,2013-01-04 12:24:00,
2013-01-04 07:39:00,66.6,66.3,30.02,NNE,22,3.2,-999.0,99,-99.99,,,0.00,Acu-Link.com,2013-01-04 12:39:00,
2013-01-04 07:54:00,66.9,66.6,30.03,NE,45,3.2,-999.0,99,-99.99,,,0.00,Acu-Link.com,2013-01-04 12:54:00,
2013-01-04 08:09:00,68.9,68.3,30.03,NNE,22,2.7,-999.0,98,-99.99,,,0.00,Acu-Link.com,2013-01-04 13:09:00,
2013-01-04 08:24:00,69.8,68.0,30.04,North,0,2.7,-999.0,94,-99.99,,,0.00,Acu-Link.com,2013-01-04 13:24:00,
2013-01-04 08:39:00,71.1,68.7,30.05,NNW,337,3.7,-999.0,92,-99.99,,,0.00,Acu-Link.com,2013-01-04 13:39:00,
2013-01-04 08:54:00,71.2,68.4,30.05,NNW,337,3.7,-999.0,91,-99.99,,,0.00,Acu-Link.com,2013-01-04 13:54:00,
2013-01-04 09:09:00,72.5,68.7,30.05,East,90,3.2,-999.0,88,-99.99,,,0.00,Acu-Link.com,2013-01-04 14:09:00,
2013-01-04 09:24:00,73.4,69.3,30.05,WNW,292,4.2,-999.0,87,-99.99,,,0.00,Acu-Link.com,2013-01-04 14:24:00,
2013-01-04 09:40:00,74.1,69.6,30.05,NNE,22,4.2,-999.0,86,-99.99,,,0.00,Acu-Link.com,2013-01-04 14:40:00,
2013-01-04 09:55:00,75.0,69.8,30.06,NNW,337,3.7,-999.0,84,-99.99,,,0.00,Acu-Link.com,2013-01-04 14:55:00,
2013-01-04 10:10:00,76.1,70.5,30.07,NW,315,2.7,-999.0,83,-99.99,,,0.00,Acu-Link.com,2013-01-04 15:10:00,
2013-01-04 10:25:00,76.6,70.3,30.05,WNW,292,3.7,-999.0,81,-99.99,,,0.00,Acu-Link.com,2013-01-04 15:25:00,
2013-01-04 10:40:00,77.5,70.5,30.05,ENE,67,2.2,-999.0,79,-99.99,,,0.00,Acu-Link.com,2013-01-04 15:40:00,
2013-01-04 10:55:00,78.1,70.7,30.05,West,270,2.7,-999.0,78,-99.99,,,0.00,Acu-Link.com,2013-01-04 15:55:00,
2013-01-04 11:11:00,77.4,70.4,30.05,NW,315,5.8,-999.0,79,-99.99,,,0.00,Acu-Link.com,2013-01-04 16:11:00,
2013-01-04 11:26:00,78.4,70.2,30.04,West,270,4.2,-999.0,76,-99.99,,,0.00,Acu-Link.com,2013-01-04 16:26:00,
2013-01-04 11:41:00,76.5,69.5,30.04,West,270,1.1,-999.0,79,-99.99,,,0.00,Acu-Link.com,2013-01-04 16:41:00,
2013-01-04 11:56:00,78.3,69.7,30.03,WSW,247,5.3,-999.0,75,-99.99,,,0.00,Acu-Link.com,2013-01-04 16:56:00,
2013-01-04 12:12:00,77.4,70.0,30.02,WNW,292,3.2,-999.0,78,-99.99,,,0.00,Acu-Link.com,2013-01-04 17:12:00,
2013-01-04 12:27:00,79.5,70.1,30.01,SW,225,4.7,-999.0,73,-99.99,,,0.00,Acu-Link.com,2013-01-04 17:27:00,
2013-01-04 12:42:00,80.8,69.7,30.01,WSW,247,3.7,-999.0,69,-99.99,,,0.00,Acu-Link.com,2013-01-04 17:42:00,
2013-01-04 12:57:00,80.6,69.5,30.00,West,270,2.7,-999.0,69,-99.99,,,0.00,Acu-Link.com,2013-01-04 17:57:00,
2013-01-04 13:12:00,80.6,69.0,30.00,WSW,247,3.7,-999.0,68,-99.99,,,0.00,Acu-Link.com,2013-01-04 18:12:00,
2013-01-04 13:27:00,82.0,69.0,29.99,South,180,3.7,-999.0,65,-99.99,,,0.00,Acu-Link.com,2013-01-04 18:27:00,
2013-01-04 13:42:00,80.4,68.0,29.99,West,270,3.7,-999.0,66,-99.99,,,0.00,Acu-Link.com,2013-01-04 18:42:00,
2013-01-04 13:57:00,81.3,67.9,29.98,West,270,3.7,-999.0,64,-99.99,,,0.00,Acu-Link.com,2013-01-04 18:57:00,
2013-01-04 14:12:00,80.4,67.1,29.99,West,270,7.3,-999.0,64,-99.99,,,0.00,Acu-Link.com,2013-01-04 19:12:00,
2013-01-04 14:28:00,80.8,67.5,29.98,SSE,157,2.2,-999.0,64,-99.99,,,0.00,Acu-Link.com,2013-01-04 19:28:00,
2013-01-04 14:43:00,79.9,70.0,29.98,ESE,112,4.2,-999.0,72,-99.99,,,0.00,Acu-Link.com,2013-01-04 19:43:00,
2013-01-04 14:58:00,79.0,70.0,29.97,East,90,6.3,-999.0,74,-99.99,,,0.00,Acu-Link.com,2013-01-04 19:58:00,
2013-01-04 15:13:00,78.3,69.7,29.98,ESE,112,3.7,-999.0,75,-99.99,,,0.00,Acu-Link.com,2013-01-04 20:13:00,
2013-01-04 15:28:00,78.3,69.7,29.98,ESE,112,6.3,-999.0,75,-99.99,,,0.00,Acu-Link.com,2013-01-04 20:28:00,
2013-01-04 15:43:00,77.7,69.9,29.98,NE,45,7.3,-999.0,77,-99.99,,,0.00,Acu-Link.com,2013-01-04 20:43:00,
2013-01-04 15:58:00,77.4,70.0,29.99,East,90,4.7,-999.0,78,-99.99,,,0.00,Acu-Link.com,2013-01-04 20:58:00,
2013-01-04 16:13:00,77.0,70.0,29.99,East,90,4.7,-999.0,79,-99.99,,,0.00,Acu-Link.com,2013-01-04 21:13:00,
2013-01-04 16:28:00,77.2,69.8,30.00,NE,45,7.8,-999.0,78,-99.99,,,0.00,Acu-Link.com,2013-01-04 21:28:00,
2013-01-04 16:44:00,76.1,69.1,30.00,ENE,67,6.8,-999.0,79,-99.99,,,0.00,Acu-Link.com,2013-01-04 21:44:00,
2013-01-04 16:59:00,75.7,69.4,30.00,East,90,8.3,-999.0,81,-99.99,,,0.00,Acu-Link.com,2013-01-04 21:59:00,
2013-01-04 17:14:00,75.0,69.1,30.00,NE,45,8.9,-999.0,82,-99.99,,,0.00,Acu-Link.com,2013-01-04 22:14:00,
2013-01-04 17:29:00,74.5,69.3,30.00,NE,45,3.7,-999.0,84,-99.99,,,0.00,Acu-Link.com,2013-01-04 22:29:00,
2013-01-04 17:44:00,73.9,69.8,30.01,ENE,67,4.7,-999.0,87,-99.99,,,0.00,Acu-Link.com,2013-01-04 22:44:00,
2013-01-04 17:59:00,73.4,70.0,30.01,NE,45,6.3,-999.0,89,-99.99,,,0.00,Acu-Link.com,2013-01-04 22:59:00,
2013-01-04 18:14:00,73.0,69.9,30.03,ENE,67,6.3,-999.0,90,-99.99,,,0.00,Acu-Link.com,2013-01-04 23:14:00,
2013-01-04 18:29:00,72.9,69.8,30.03,NE,45,5.8,-999.0,90,-99.99,,,0.00,Acu-Link.com,2013-01-04 23:29:00,
2013-01-04 18:44:00,72.7,69.6,30.04,NE,45,5.8,-999.0,90,-99.99,,,0.00,Acu-Link.com,2013-01-04 23:44:00,
2013-01-04 19:00:00,72.5,69.4,30.04,NE,45,4.2,-999.0,90,-99.99,,,0.00,Acu-Link.com,2013-01-05 00:00:00,
2013-01-04 19:15:00,72.1,69.0,30.05,NE,45,5.8,-999.0,90,-99.99,,,0.00,Acu-Link.com,2013-01-05 00:15:00,
2013-01-04 19:31:00,71.8,69.0,30.05,NE,45,4.7,-999.0,91,-99.99,,,0.00,Acu-Link.com,2013-01-05 00:31:00,
2013-01-04 19:46:00,71.4,68.9,30.06,NE,45,3.2,-999.0,92,-99.99,,,0.00,Acu-Link.com,2013-01-05 00:46:00,
2013-01-04 20:01:00,71.1,69.0,30.07,NNE,22,4.2,-999.0,93,-99.99,,,0.00,Acu-Link.com,2013-01-05 01:01:00,
2013-01-04 20:17:00,70.9,69.1,30.07,NNW,337,3.7,-999.0,94,-99.99,,,0.00,Acu-Link.com,2013-01-05 01:17:00,
2013-01-04 20:32:00,70.7,68.9,30.08,NE,45,3.7,-999.0,94,-99.99,,,0.00,Acu-Link.com,2013-01-05 01:32:00,
2013-01-04 20:47:00,70.5,69.0,30.08,NE,45,2.7,-999.0,95,-99.99,,,0.00,Acu-Link.com,2013-01-05 01:47:00,
2013-01-04 21:09:00,70.2,68.7,30.07,NE,45,4.2,-999.0,95,-99.99,,,0.00,Acu-Link.com,2013-01-05 02:09:00,
2013-01-04 21:24:00,69.8,68.6,30.09,North,0,5.3,-999.0,96,-99.99,,,0.00,Acu-Link.com,2013-01-05 02:24:00,
2013-01-04 21:39:00,69.6,68.4,30.08,North,0,3.7,-999.0,96,-99.99,,,0.00,Acu-Link.com,2013-01-05 02:39:00,
2013-01-04 21:54:00,69.4,68.2,30.09,NNE,22,6.8,-999.0,96,-99.99,,,0.00,Acu-Link.com,2013-01-05 02:54:00,
2013-01-04 22:10:00,69.4,68.2,30.09,NE,45,3.7,-999.0,96,-99.99,,,0.00,Acu-Link.com,2013-01-05 03:10:00,
2013-01-04 22:25:00,69.3,68.1,30.08,NE,45,3.2,-999.0,96,-99.99,,,0.00,Acu-Link.com,2013-01-05 03:25:00,
2013-01-04 22:40:00,68.9,67.7,30.08,NNE,22,3.7,-999.0,96,-99.99,,,0.00,Acu-Link.com,2013-01-05 03:40:00,
2013-01-04 22:55:00,68.7,67.5,30.08,North,0,5.3,-999.0,96,-99.99,,,0.00,Acu-Link.com,2013-01-05 03:55:00,
2013-01-04 23:10:00,68.5,67.6,30.08,ENE,67,7.3,-999.0,97,-99.99,,,0.00,Acu-Link.com,2013-01-05 04:10:00,
2013-01-04 23:25:00,68.4,67.5,30.08,NE,45,4.7,-999.0,97,-99.99,,,0.00,Acu-Link.com,2013-01-05 04:25:00,
2013-01-04 23:40:00,68.0,67.1,30.07,NNE,22,2.7,-999.0,97,-99.99,,,0.00,Acu-Link.com,2013-01-05 04:40:00,
2013-01-04 23:55:00,67.8,67.2,30.07,NE,45,3.7,-999.0,98,-99.99,,,0.00,Acu-Link.com,2013-01-05 04:55:00,